Orbital Elements at Epoch 2459000.5 (2020-May-31.0) TDB
Reference: JPL 31 (heliocentric ecliptic J2000)
Element | Value | Uncertainty (1-sigma) | Units |
e | .1127801630392983 | 4.0566e-08 | |
a | 3.017261361839226 | 1.7522e-08 | au |
q | 2.676974133518823 | 1.2617e-07 | au |
i | 3.628646173833928 | 4.0991e-06 | deg |
node | 82.07903214865991 | 6.4433e-05 | deg |
peri | 44.1213627620866 | 6.7049e-05 | deg |
M | 13.23878767120443 | 1.6958e-05 | deg |
tp | 2458930.101478220575 (2020-Mar-21.60147822) | 9.0167e-05 | TDB |
period | 1914.334489684219 5.24 | 1.6676e-05 4.566e-08 | d yr |
n | .1880549099125222 | 1.6381e-09 | deg/d |
Q | 3.357548590159629 | 1.9498e-08 | au |
|
| | Orbit Determination Parameters
Additional Information
|